Погода в Нуреке

Таджикистан     38°23′21″N   69°19′02″E
темп.,
°C
ветер,
м/с
пор.,
м/с
влажн.,
%
обл.,
%
осадки,
мм/ч
давл.,
гПа
погр.,
м
7 мая, пт
пт723:00+12св33757 0.1 101730
02:00+12св337199 0.0 101628
05:00+12всв3269100 0.0 101720
08:00+17юв116046 0.0 1017258
11:00+20юз22555 0.0 10161174
14:00+21з225221 0.1 10151336
17:00+21з115244 0.1 10141078
20:00+16св226629 0.0 101511
8 мая, сб
сб823:00+15всв336746 0.0 101621
02:00+14всв336758 0.0 101623
05:00+14св436496 0.0 101630
08:00+19св115665 0.0 1016238
11:00+22зюз2251100 0.0 10151419
14:00+23з224623 0.1 10141931
17:00+23зсз114886 0.1 1013890
20:00+17всв335841 0.0 101415
9 мая, вс
вс923:00+16всв43587 0.0 101531
02:00+15всв335926 0.0 101430
05:00+15всв435850 0.0 101434
08:00+20всв115443 0.0 1014203
11:00+23юз224386 0.0 10131749
14:00+25зюз223841 0.0 10122240
17:00+24сз013872 0.0 10101555
20:00+19всв33495 0.0 101120
10 мая, пн
пн1023:00+17св44535 0.0 101138
02:00+16св445468 0.0 101135
05:00+16св445475 0.0 101043
08:00+21св2254100 0.0 1010159
11:00+25зюз223884 0.0 10091651
14:00+26з23369 0.0 10082187
17:00+25з123719 0.0 10061859
20:00+20ссв114958 0.0 100811
11 мая, вт
вт1123:00+17св3353100 0.0 101030
02:00+14св4477100 2.2 101149
05:00+15в2272100 2.8 101130
08:00+17вюв2272100 0.1 1012121
11:00+20ю2261100 1.3 1013533
14:00+22ююз125386 2.4 10121654
17:00+18юв227286 5.8 1012134
20:00+15юв118860 4.1 101415